TimeEDT,TemperatureF,Dew PointF,Humidity,Sea Level PressureIn,VisibilityMPH,Wind Direction,Wind SpeedMPH,Gust SpeedMPH,PrecipitationIn,Events,Conditions,WindDirDegrees,DateUTC
12:53 AM,66.9,64.0,90,30.09,6.0,NE,9.2,-,0.00,,Overcast,40,2013-08-17 04:53:00
1:53 AM,66.9,64.9,93,30.09,3.0,NE,5.8,-,N/A,,Overcast,40,2013-08-17 05:53:00
2:44 AM,66.2,64.4,94,30.07,6.0,NNE,5.8,-,N/A,,Overcast,30,2013-08-17 06:44:00
2:53 AM,66.9,64.0,90,30.07,7.0,NNE,6.9,-,N/A,,Overcast,30,2013-08-17 06:53:00
3:53 AM,66.9,64.9,93,30.06,7.0,NE,5.8,-,0.00,Rain,Light Rain,40,2013-08-17 07:53:00
4:25 AM,66.2,64.4,94,30.07,2.5,NNE,6.9,-,0.00,,Overcast,20,2013-08-17 08:25:00
4:53 AM,66.0,64.0,93,30.06,2.5,NNE,9.2,-,0.00,,Overcast,30,2013-08-17 08:53:00
5:23 AM,66.2,64.4,94,30.07,3.0,NNE,5.8,-,N/A,,Overcast,30,2013-08-17 09:23:00
5:53 AM,66.0,64.0,93,30.07,3.0,NNE,6.9,-,N/A,,Overcast,30,2013-08-17 09:53:00
6:31 AM,66.2,64.4,94,30.08,2.5,NNE,9.2,-,N/A,,Overcast,30,2013-08-17 10:31:00
6:53 AM,66.0,64.0,93,30.08,2.5,NNE,8.1,-,N/A,,Overcast,20,2013-08-17 10:53:00
7:24 AM,66.2,64.4,94,30.09,1.8,NNE,4.6,-,N/A,,Overcast,30,2013-08-17 11:24:00
7:40 AM,66.2,64.4,94,30.09,2.0,NNE,8.1,-,N/A,,Overcast,30,2013-08-17 11:40:00
7:53 AM,66.0,64.0,93,30.09,2.0,NNE,6.9,-,N/A,,Overcast,20,2013-08-17 11:53:00
8:46 AM,66.2,64.4,94,30.12,2.5,NE,6.9,-,N/A,,Overcast,40,2013-08-17 12:46:00
9:24 AM,66.2,64.4,94,30.12,5.0,NNE,5.8,-,N/A,,Overcast,30,2013-08-17 13:24:00
9:53 AM,68.0,64.9,90,30.13,7.0,NNE,4.6,-,N/A,,Overcast,30,2013-08-17 13:53:00
10:53 AM,68.0,64.9,90,30.14,10.0,NE,5.8,-,0.00,Rain,Light Rain,50,2013-08-17 14:53:00
11:53 AM,69.1,64.9,87,30.15,10.0,Calm,Calm,-,0.00,,Overcast,0,2013-08-17 15:53:00
12:53 PM,69.1,64.9,87,30.14,10.0,NE,4.6,-,N/A,,Overcast,40,2013-08-17 16:53:00
1:30 PM,69.8,64.4,83,30.15,10.0,Calm,Calm,-,0.00,,Overcast,0,2013-08-17 17:30:00
1:53 PM,70.0,64.9,84,30.13,10.0,NE,3.5,-,0.00,,Overcast,40,2013-08-17 17:53:00
2:53 PM,71.1,66.0,84,30.11,10.0,Calm,Calm,-,0.00,,Overcast,0,2013-08-17 18:53:00
3:53 PM,71.1,66.0,84,30.11,7.0,NNE,4.6,-,N/A,,Overcast,30,2013-08-17 19:53:00
4:53 PM,71.1,66.9,87,30.13,4.0,Calm,Calm,-,0.00,Rain,Light Rain,0,2013-08-17 20:53:00
5:07 PM,71.6,66.2,83,30.12,5.0,Calm,Calm,-,0.00,Rain,Light Rain,0,2013-08-17 21:07:00
5:46 PM,71.6,66.2,83,30.12,6.0,North,4.6,-,0.00,,Haze,10,2013-08-17 21:46:00
5:53 PM,72.0,66.9,84,30.11,6.0,North,5.8,-,0.00,,Haze,360,2013-08-17 21:53:00
6:30 PM,71.6,66.2,83,30.11,5.0,North,5.8,-,N/A,,Overcast,10,2013-08-17 22:30:00
6:53 PM,71.1,66.9,87,30.11,4.0,NE,3.5,-,N/A,,Overcast,50,2013-08-17 22:53:00
7:53 PM,70.0,66.9,90,30.12,6.0,NE,4.6,-,0.00,Rain,Light Rain,50,2013-08-17 23:53:00
8:53 PM,70.0,66.9,90,30.14,7.0,Calm,Calm,-,0.00,,Overcast,0,2013-08-18 00:53:00
9:27 PM,69.8,66.2,88,30.16,7.0,Calm,Calm,-,N/A,,Scattered Clouds,0,2013-08-18 01:27:00
9:53 PM,70.0,66.9,90,30.17,6.0,Calm,Calm,-,N/A,,Mostly Cloudy,0,2013-08-18 01:53:00
10:53 PM,70.0,66.9,90,30.17,5.0,Calm,Calm,-,N/A,,Overcast,0,2013-08-18 02:53:00
11:53 PM,70.0,66.9,90,30.17,5.0,Calm,Calm,-,0.00,Rain,Light Rain,0,2013-08-18 03:53:00